FW6268 Weather Reports


time (UTC)temp
C
wind
direction
speed
KPH
gust
KPH
rain 1hr
cm
rain 24hr
cm
rain mn
cm
humidity
%
barometer
mb
20260503204516 19 218 8.0 20.9 0.00 0.00 0.00 43 1005.0
20260503203533 18 251 14.5 24.1 0.00 0.00 0.00 43 1005.3
20260503202530 18 263 9.7 24.1 0.00 0.00 0.00 43 1005.4
20260503201526 18 239 11.3 24.1 0.00 0.00 0.00 43 1005.6
20260503200523 18 255 12.9 37.0 0.00 0.00 0.00 42 1005.8
20260503195520 18 243 12.9 24.1 0.00 0.00 0.00 41 1005.9
20260503194517 18 247 12.9 33.8 0.00 0.00 0.00 40 1006.1
20260503193533 18 233 12.9 27.4 0.00 0.00 0.00 39 1006.1
20260503192610 18 261 17.7 40.2 0.00 0.00 0.00 38 1006.0
20260503191527 18 242 16.1 37.0 0.00 0.00 0.00 38 1006.1
20260503190523 18 250 11.3 24.1 0.00 0.00 0.00 40 1006.2
20260503185520 18 246 11.3 27.4 0.00 0.00 0.00 41 1006.3
20260503184517 18 243 11.3 29.0 0.00 0.00 0.00 41 1006.5
20260503183534 18 232 11.3 38.6 0.00 0.00 0.00 43 1006.6
20260503182531 17 239 11.3 27.4 0.00 0.00 0.00 43 1006.7
20260503181527 17 230 11.3 22.5 0.00 0.00 0.00 44 1007.1
20260503180524 17 243 8.0 16.1 0.00 0.00 0.00 46 1007.2
20260503175521 16 231 11.3 25.7 0.00 0.00 0.00 46 1007.5
20260503174537 16 237 12.9 22.5 0.00 0.00 0.00 47 1007.6
20260503173534 16 238 14.5 30.6 0.00 0.00 0.00 48 1007.9
20260503172531 15 246 12.9 30.6 0.00 0.00 0.00 48 1008.1
20260503171528 15 221 11.3 24.1 0.00 0.00 0.00 49 1008.3
20260503170524 14 243 12.9 25.7 0.00 0.00 0.00 51 1008.6
20260503150525 13 237 11.3 25.7 0.00 0.00 0.00 50 1009.6
20260503130526 11 256 8.0 20.9 0.00 0.00 0.00 53 1010.8
20260503110526 9 255 6.4 12.9 0.00 0.00 0.00 51 1010.7
20260503081531 8 232 4.8 9.7 0.00 0.00 0.00 53 1011.7
20260503080528 8 235 4.8 14.5 0.00 0.00 0.00 53 1012.0
20260503072535 8 242 3.2 9.7 0.00 0.00 0.00 53 1012.2
20260503071532 8 241 4.8 8.0 0.00 0.00 0.00 53 1012.3
20260503070528 8 237 4.8 12.9 0.00 0.00 0.00 52 1012.4
20260503054522 7 230 3.2 6.4 0.00 0.00 0.00 55 1013.0
20260503053519 7 234 3.2 9.7 0.00 0.00 0.00 56 1012.9
20260503052516 6 229 1.6 4.8 0.00 0.00 0.00 60 1013.1
20260503051533 5 205 1.6 4.8 0.00 0.00 0.00 66 1013.1
20260503050529 3 133 0.0 3.2 0.00 0.00 0.00 73 1013.2
20260503045606 3 144 1.6 3.2 0.00 0.00 0.00 80 1013.3
20260503044523 3 137 1.6 4.8 0.00 0.00 0.00 81 1013.3
20260503043540 3 145 3.2 3.2 0.00 0.00 0.00 79 1013.3
20260503042516 4 131 3.2 3.2 0.00 0.00 0.00 77 1013.4
20260503041533 3 140 1.6 3.2 0.00 0.00 0.00 81 1013.5
20260503040530 3 143 3.2 3.2 0.00 0.00 0.00 81 1013.5
20260503035547 3 147 3.2 3.2 0.00 0.00 0.00 80 1013.7
20260503034543 4 144 1.6 3.2 0.00 0.00 0.00 77 1013.7
20260503033520 4 141 3.2 3.2 0.00 0.00 0.00 75 1013.8
20260503032517 4 144 1.6 3.2 0.00 0.00 0.00 76 1013.8
20260503031534 3 115 1.6 3.2 0.00 0.00 0.00 79 1014.0
20260503030531 3 124 1.6 3.2 0.00 0.00 0.00 79 1014.0
20260503025527 4 149 1.6 3.2 0.00 0.00 0.00 76 1014.2
20260503024524 5 121 1.6 3.2 0.00 0.00 0.00 74 1014.1
20260503023521 5 135 1.6 3.2 0.00 0.00 0.00 72 1014.2
20260503022517 5 81 1.6 3.2 0.00 0.00 0.00 69 1014.2
20260503021534 6 100 1.6 3.2 0.00 0.00 0.00 67 1014.2
20260503020531 6 106 1.6 3.2 0.00 0.00 0.00 65 1014.2
20260503015527 7 67 1.6 3.2 0.00 0.00 0.00 62 1014.1
20260503014524 7 61 1.6 3.2 0.00 0.00 0.00 60 1014.1
20260503013521 8 124 1.6 6.4 0.00 0.00 0.00 58 1014.0
20260503012517 8 85 1.6 3.2 0.00 0.00 0.00 56 1013.9
20260503011554 9 126 3.2 6.4 0.00 0.00 0.00 53 1013.8
20260503010531 10 128 4.8 9.7 0.00 0.00 0.00 51 1013.9
20260503005528 10 128 6.4 11.3 0.00 0.00 0.00 48 1013.9
20260503004525 11 122 3.2 4.8 0.00 0.00 0.00 39 1013.8
20260503003521 12 156 1.6 4.8 0.00 0.00 0.00 38 1013.8
20260503002518 12 217 3.2 9.7 0.00 0.00 0.00 36 1013.9
20260503001535 12 232 3.2 9.7 0.00 0.00 0.00 36 1013.8
20260503000531 13 214 3.2 9.7 0.00 0.00 0.00 35 1014.1
20260502235528 13 204 1.6 4.8 0.00 0.00 0.00 36 1014.1
20260502234525 13 269 4.8 8.0 0.00 0.00 0.00 35 1014.2
20260502233521 13 253 3.2 9.7 0.00 0.00 0.00 35 1014.2
20260502232518 13 227 4.8 9.7 0.00 0.00 0.00 34 1014.4
20260502231535 14 275 4.8 11.3 0.00 0.00 0.00 33 1014.4
20260502230532 14 222 4.8 9.7 0.00 0.00 0.00 33 1014.5
20260502225548 13 232 4.8 14.5 0.00 0.00 0.00 34 1014.5
20260502224525 15 279 4.8 12.9 0.00 0.00 0.00 31 1014.5
20260502223521 14 306 4.8 12.9 0.00 0.00 0.00 32 1014.9
20260502222538 14 258 6.4 14.5 0.00 0.00 0.00 32 1014.8
20260502221535 14 248 3.2 6.4 0.00 0.00 0.00 33 1014.9
20260502220532 14 241 4.8 16.1 0.00 0.00 0.00 33 1015.0
20260502215528 13 268 6.4 17.7 0.00 0.00 0.00 33 1015.1
20260502214525 13 254 4.8 14.5 0.00 0.00 0.00 33 1015.2
20260502213542 15 248 8.0 14.5 0.00 0.00 0.00 32 1015.2
20260502212539 14 251 8.0 12.9 0.00 0.00 0.00 32 1015.2
20260502211516 14 239 4.8 11.3 0.00 0.00 0.00 32 1015.2
20260502210532 13 289 4.8 8.0 0.00 0.00 0.00 33 1015.4
20260502205549 13 262 6.4 14.5 0.00 0.00 0.00 34 1015.6